Wind_Speed
18 18 17 17 15 15 16 14 14 14 15 12 11 12 13 13 16 17 24 16 16 26 9 14 27 25 22 20 21 18 15 19 26 25 15 11 9 14 4 12 4 13 4 19 25
18 19 20 19 17 16 16 16 14 14 13 14 14 11 11 13 17 28 33 28 26 15 18 20 23 26 19 23 18 17 17 26 21 8 12 2 13 11 8 13 9 7 6 11 19
18 19 20 18 18 17 18 18 16 15 14 14 14 14 11 10 18 14 7 36 32 31 22 21 27 25 27 23 27 25 23 20 22 5 5 18 10 12 7 14 14 16 16 13 13
18 19 19 19 19 18 17 17 16 16 15 14 14 10 10 8 6 8 7 5 29 26 22 23 23 28 30 30 27 25 24 26 17 9 13 17 24 14 11 16 10 2 11 11 14
19 20 20 20 21 21 19 18 17 16 16 15 12 10 6 10 17 16 15 4 21 28 32 27 25 29 31 29 28 28 23 20 21 19 15 16 22 18 13 13 15 5 5 11 14
19 19 20 20 20 20 20 18 18 18 17 18 13 9 13 22 18 17 16 15 21 36 36 32 22 28 29 30 27 15 23 23 21 16 14 14 21 24 21 18 19 16 14 11 14
19 21 22 22 24 23 21 19 18 19 20 18 15 13 20 26 12 12 11 19 20 35 26 36 33 25 29 32 27 27 22 16 16 23 18 13 23 25 24 22 13 17 17 14 13
20 20 20 22 23 23 23 22 22 20 19 17 15 17 12 19 26 33 19 12 17 28 32 34 33 27 28 25 31 23 12 16 22 29 10 13 29 31 29 20 22 20 18 16 12
21 22 23 20 22 25 25 23 24 22 17 11 11 14 14 10 30 28 29 25 19 26 28 26 27 26 26 27 20 21 12 25 27 29 13 18 18 32 14 20 23 16 18 17 15
24 22 23 25 24 23 25 25 23 14 8 9 5 9 15 19 18 25 25 27 19 20 20 21 20 21 22 24 20 20 30 31 27 29 23 19 21 17 9 23 25 27 16 19 21
23 22 23 26 28 24 22 13 8 6 12 13 17 16 4 20 11 20 30 24 20 23 23 27 21 25 33 31 29 32 24 30 20 20 23 21 20 16 16 17 21 21 17 17 16
27 21 24 25 30 25 19 8 18 17 16 32 29 27 32 13 12 18 31 19 26 22 27 21 26 26 26 26 26 26 23 18 24 13 19 23 23 19 18 23 20 20 19 14 14
24 25 26 27 33 26 19 24 21 16 7 20 32 31 30 22 17 23 29 26 26 27 29 22 28 27 25 24 26 23 20 11 21 14 14 16 23 21 22 20 24 24 22 20 13
30 27 25 25 25 8 15 3 10 9 5 12 25 27 31 21 19 22 32 27 19 28 30 25 25 30 23 28 24 22 18 15 17 16 15 19 9 22 20 22 20 21 13 12 12
27 26 25 17 17 19 22 13 8 4 7 2 25 11 22 30 17 25 35 28 25 20 25 25 24 28 27 26 24 19 19 18 11 16 13 23 10 12 24 20 20 18 19 9 9
30 31 28 24 20 19 17 16 4 6 11 12 13 18 26 34 22 25 29 29 19 22 24 23 21 22 27 20 20 19 19 14 15 14 15 17 15 11 13 17 23 22 17 13 7
33 35 32 31 25 19 13 8 5 7 18 16 24 23 28 26 26 30 30 30 24 23 21 24 21 23 21 23 24 21 13 11 12 13 12 20 16 11 18 18 17 16 14 9 7
38 42 31 25 19 19 11 7 10 20 33 12 11 25 24 29 28 29 30 26 28 24 18 22 21 24 18 22 18 24 20 13 13 14 15 11 9 13 13 13 7 14 11 7 5
42 24 22 14 7 15 5 11 13 28 12 21 15 22 19 27 20 26 32 28 26 24 17 21 19 22 20 19 20 24 20 25 13 10 8 13 10 6 13 13 12 12 10 7 6
27 26 6 8 9 11 7 21 23 25 13 22 17 13 20 15 20 25 26 28 27 25 24 21 15 25 21 18 20 22 21 19 11 12 13 14 16 12 16 15 13 12 11 7 6
15 7 8 7 16 5 10 16 25 30 2 13 10 4 11 26 14 21 22 16 25 25 21 14 17 22 23 18 19 17 19 18 13 12 8 11 5 22 19 18 15 11 9 7 5
8 5 7 7 2 3 12 21 25 24 18 19 5 9 12 20 23 24 22 15 28 23 24 11 8 17 23 17 17 19 16 20 11 16 11 6 6 5 16 14 14 11 6 7 4
6 8 5 3 2 2 10 23 23 26 20 7 6 6 8 3 4 20 22 20 30 27 22 9 6 13 15 3 9 13 19 15 16 8 11 10 8 8 9 14 13 11 9 7 2
4 5 1 2 4 4 7 13 13 18 18 11 2 4 2 6 10 14 23 23 28 24 6 8 2 17 11 17 17 20 17 19 17 11 8 7 8 5 7 11 11 10 8 2 2
1 3 6 6 7 13 12 8 14 9 8 11 2 2 4 5 18 11 25 22 29 21 13 10 7 3 5 12 20 22 11 14 14 18 13 7 7 12 20 15 14 9 5 3 5
6 3 4 11 13 16 7 4 8 8 4 4 5 6 7 3 12 11 17 23 25 26 23 18 12 20 5 16 15 17 20 18 16 13 15 4 4 4 4 1 1 3 0 6 6
15 8 3 11 11 9 6 7 11 5 8 1 13 8 8 6 8 7 6 6 16 20 19 13 8 9 7 8 8 6 9 9 9 8 8 9 8 3 4 3 2 4 3 4 5
Wind_Direction
331 330 329 328 322 321 320 319 319 318 316 314 317 315 303 296 283 267 245 230 229 239 261 227 214 223 232 247 228 228 242 236 231 233 256 231 214 218 312 291 220 186 21 75 135
324 324 323 318 313 311 309 310 310 308 310 310 307 304 297 288 281 267 253 242 231 232 215 216 212 208 224 228 232 225 237 220 241 252 248 279 220 222 208 228 234 220 112 129 154
321 320 317 314 312 309 306 305 304 304 302 300 303 306 294 297 280 251 255 231 227 220 224 220 221 207 217 222 227 209 230 232 238 4 256 302 258 259 239 252 225 207 187 164 173
317 318 317 318 316 313 309 306 304 299 295 291 295 303 286 269 258 110 98 159 226 211 221 228 217 217 216 221 217 228 214 251 260 248 252 276 312 238 263 250 352 90 333 177 186
324 320 318 319 319 316 313 308 304 298 293 286 283 288 253 230 247 246 259 247 203 198 208 208 209 215 216 218 219 227 224 225 268 216 246 276 292 296 249 281 297 230 221 259 204
322 317 316 315 313 310 309 307 302 296 289 285 269 259 242 256 258 238 232 208 196 197 203 211 209 212 218 220 221 214 226 240 256 264 250 240 260 298 285 256 267 268 255 222 227
332 329 324 320 317 312 308 303 299 295 289 278 260 240 249 242 268 222 219 202 207 199 197 209 215 217 217 216 209 203 207 217 235 256 253 253 262 251 269 273 249 270 247 246 218
327 326 325 318 312 308 308 304 300 294 290 275 248 226 247 252 245 247 227 233 204 206 205 205 213 224 220 233 214 206 180 221 229 234 220 174 243 244 251 313 296 240 262 226 216
321 323 324 323 316 313 309 303 298 295 280 258 202 210 256 224 229 226 217 219 192 201 206 209 209 223 216 226 216 176 197 227 227 206 156 195 240 234 285 293 289 265 228 261 216
317 317 317 322 322 313 308 305 296 273 234 183 231 198 247 232 223 212 207 202 183 189 194 206 212 215 229 215 213 197 210 224 218 186 180 199 242 222 260 271 275 284 248 221 219
308 310 319 321 320 315 313 317 212 196 218 206 185 224 303 216 183 204 189 187 182 180 191 194 206 208 214 211 222 203 220 221 246 190 187 213 226 203 217 259 260 289 273 256 245
305 304 315 317 321 305 287 242 259 310 274 225 250 231 255 292 201 197 179 178 181 183 201 184 209 212 214 223 230 237 234 215 226 194 205 205 220 229 214 212 236 259 266 264 243
318 314 316 318 323 297 250 254 257 283 269 269 229 229 227 221 231 186 186 194 190 189 202 197 196 215 212 214 221 230 240 200 227 159 209 240 213 218 210 218 224 221 245 219 234
319 317 312 311 301 305 272 328 257 236 271 253 210 218 216 207 223 207 196 198 192 197 195 210 200 198 204 219 212 214 220 216 207 182 209 207 230 190 200 205 208 254 226 225 231
316 315 313 306 286 288 289 323 1 97 263 290 186 174 179 199 163 190 192 210 201 194 195 203 210 190 209 208 204 224 197 224 223 222 251 186 220 236 188 202 205 212 238 218 208
319 315 312 295 268 266 271 271 8 231 229 234 145 180 179 194 203 170 188 220 223 212 199 210 209 197 208 202 210 218 210 192 227 228 226 223 209 193 185 203 186 194 214 198 158
318 312 299 282 267 265 249 253 234 239 231 241 163 177 182 189 199 167 186 204 209 201 194 217 191 202 200 197 205 205 187 195 202 217 228 204 226 226 189 174 187 191 164 138 170
320 312 292 264 258 229 225 203 237 228 237 69 181 173 187 181 196 177 183 195 216 204 186 200 187 193 195 207 185 203 195 214 188 206 213 220 212 215 145 109 67 118 126 154 203
325 312 293 275 264 194 187 216 225 238 284 246 234 171 191 180 181 181 187 197 201 205 194 201 185 191 196 196 197 192 216 232 279 289 238 161 107 84 116 143 162 146 137 143 129
319 304 353 96 189 187 217 239 237 257 284 291 206 152 182 176 175 191 189 196 199 213 228 194 204 178 181 212 215 204 202 218 236 256 221 162 167 182 169 165 164 143 146 144 133
301 303 49 107 131 167 209 223 243 256 21 305 321 25 219 172 176 184 183 189 208 206 223 233 222 172 175 205 196 201 206 220 223 220 218 239 161 135 166 167 160 160 147 149 133
316 297 99 146 193 224 240 255 264 264 254 262 7 65 321 190 187 193 184 183 217 209 213 189 227 188 181 185 221 206 214 201 220 215 241 254 84 20 129 146 137 148 146 117 105
299 310 45 147 296 266 280 284 274 262 256 213 267 125 239 197 219 176 188 189 191 216 206 161 156 204 161 169 212 231 209 221 215 230 224 224 142 147 140 142 159 150 132 147 157
302 331 325 150 222 255 285 298 298 281 240 171 96 104 263 345 289 211 164 190 191 179 164 158 197 208 192 194 190 208 215 211 213 221 229 211 130 144 149 160 155 165 157 179 180
290 319 1 306 326 296 338 295 308 280 49 22 101 138 149 221 240 171 163 177 174 167 178 177 225 15 301 270 190 202 188 222 164 207 229 233 260 189 201 178 189 110 141 222 178
349 356 300 291 302 335 337 304 295 101 56 37 83 92 105 36 309 166 177 159 167 170 178 191 181 174 135 144 188 180 200 196 213 217 218 244 256 71 96 249 252 260 123 204 168
359 355 280 295 357 344 339 290 306 24 66 155 136 115 88 253 349 51 103 125 149 176 174 187 184 178 138 135 128 186 182 196 204 220 256 227 236 220 140 210 149 141 161 142 119
Height
808 806 803 800 798 796 794 791 789 788 786 784 780 779 777 776 774 772 764 759 761 764 766 765 766 767 767 760 751 748 760 756 742 738 728 714 717 708 705 711 707 705 703 706 715
806 803 801 798 795 793 791 789 786 784 783 782 781 777 776 774 771 759 750 751 755 759 764 760 754 760 761 759 749 753 761 746 729 726 728 716 720 714 723 721 716 712 710 716 721
804 801 799 795 793 791 789 787 785 782 780 778 777 777 774 773 764 735 734 738 747 755 758 755 752 751 755 752 750 749 754 736 729 735 741 739 727 718 727 727 714 715 710 714 719
801 799 796 794 791 788 786 783 782 781 778 777 776 773 773 772 748 728 732 736 742 752 757 752 746 746 748 749 744 751 746 745 737 743 750 752 737 730 725 720 709 712 714 707 716
800 797 794 791 789 786 783 781 779 778 776 775 774 774 772 761 738 734 734 735 742 748 748 743 739 739 742 742 743 749 748 750 746 745 752 758 756 737 734 721 719 716 721 717 714
796 793 790 786 783 780 779 778 776 774 772 772 771 771 771 751 728 727 729 731 735 740 740 736 730 729 733 734 737 748 752 759 760 752 759 771 767 757 737 730 728 723 720 718 712
793 791 787 784 782 778 775 772 770 769 768 766 767 767 762 732 723 722 725 722 727 730 728 728 728 727 727 732 727 750 759 765 762 756 760 759 771 764 745 728 737 725 721 716 715
791 787 783 780 776 773 771 768 765 762 760 761 761 763 742 723 720 722 720 719 719 725 724 726 727 722 722 717 721 749 762 775 758 754 757 769 767 750 738 736 734 727 721 715 715
787 784 781 776 773 771 767 762 759 758 754 752 758 755 723 708 711 709 712 713 714 720 721 721 721 719 720 725 727 737 783 764 746 744 752 768 761 741 748 751 735 719 719 718 714
783 780 776 773 769 765 762 758 751 751 751 751 748 755 718 696 695 699 703 705 707 714 719 719 718 722 720 718 730 760 762 737 734 723 746 761 755 745 751 750 741 727 714 712 713
779 775 772 768 764 761 758 754 745 744 743 722 712 703 677 687 686 690 695 697 702 708 714 712 718 717 710 699 701 707 709 717 709 703 728 737 750 740 746 749 741 725 715 712 708
774 770 767 763 759 755 754 750 733 728 712 716 702 698 691 685 684 682 689 693 698 703 702 711 711 703 698 699 702 699 700 707 709 699 712 723 739 737 735 738 741 734 719 713 709
769 766 762 758 753 744 739 733 732 731 718 689 677 683 680 685 681 676 680 680 687 694 695 697 695 696 697 699 704 698 698 706 710 700 711 720 726 732 722 724 726 720 720 709 708
764 760 757 754 745 739 733 723 727 728 722 673 649 651 671 674 678 664 674 673 678 682 683 685 675 689 691 697 694 704 689 693 702 708 725 710 726 720 717 718 719 716 704 705 706
760 756 753 752 745 739 732 728 727 730 690 608 626 630 644 659 652 655 667 668 671 668 672 678 674 682 687 688 684 694 686 696 696 707 705 704 723 708 697 712 714 714 706 702 702
756 752 746 744 738 735 732 729 730 719 680 626 621 634 642 652 644 651 667 666 659 663 662 664 659 664 676 675 680 684 687 699 706 707 722 700 707 701 695 696 699 703 702 703 705
747 742 739 735 725 727 726 729 721 694 632 615 614 622 628 647 648 650 666 672 665 674 672 667 660 659 664 679 675 684 693 719 724 717 713 685 698 694 669 682 687 690 697 703 707
738 730 722 718 715 717 723 725 707 650 632 611 598 610 625 636 643 649 661 668 654 655 661 672 677 660 660 665 675 682 690 694 718 716 697 677 696 685 668 679 685 687 699 706 708
730 717 709 703 705 710 722 707 674 642 622 613 603 610 629 628 638 647 651 655 652 646 659 664 664 653 657 656 661 681 687 665 678 668 680 678 691 687 682 693 696 699 706 712 713
728 713 699 703 705 713 715 685 654 643 643 635 649 617 627 650 635 643 645 648 653 644 636 646 662 654 660 661 659 665 670 691 682 705 703 688 692 691 698 700 700 707 714 716 713
723 702 705 706 708 713 697 671 650 649 654 647 628 633 623 640 640 634 642 649 645 646 642 649 649 661 657 666 664 670 673 673 671 677 698 699 688 673 686 691 702 706 712 715 713
723 707 709 712 708 706 685 657 650 636 637 642 642 657 647 623 637 642 651 653 649 644 653 650 650 661 661 653 648 653 664 670 687 696 682 682 724 673 679 689 697 706 711 713 715
721 702 710 709 700 703 693 664 651 635 634 662 647 654 660 653 653 637 642 648 654 648 652 655 665 690 671 676 666 671 662 660 671 677 690 699 713 686 687 692 699 707 713 717 719
725 713 704 710 707 708 689 659 641 623 630 647 654 653 659 652 654 637 644 644 640 647 655 659 675 676 679 674 672 680 665 662 672 693 691 695 709 703 701 703 705 712 716 717 723
728 723 719 703 696 694 688 675 663 643 644 653 651 653 659 663 653 647 638 631 640 651 661 668 685 690 684 677 668 673 674 673 693 698 699 699 710 702 697 697 700 710 714 720 724
727 732 728 715 696 693 689 680 677 651 661 665 663 667 673 675 658 644 631 628 643 654 664 670 686 687 687 668 667 684 679 682 682 684 688 687 696 685 696 699 704 708 715 722 725
732 731 732 712 701 703 701 693 665 655 665 661 664 671 685 687 665 648 625 629 638 650 660 671 672 690 695 676 680 689 678 681 684 685 691 702 694 688 703 708 711 715 718 721 727